FW4141 Weather Reports


time (UTC)temp
C
wind
direction
speed
KPH
gust
KPH
rain 1hr
cm
rain 24hr
cm
rain mn
cm
humidity
%
barometer
mb
20260504045054 16 0.0 0.0 0.00 0.00 0.00 52 1005.7
20260504044031 15 0.0 0.0 0.00 0.00 0.00 52 1005.7
20260504043027 15 0.0 0.0 0.00 0.00 0.00 53 1005.7
20260504042024 15 0.0 0.0 0.00 0.00 0.00 53 1005.6
20260504041021 15 0.0 0.0 0.00 0.00 0.00 54 1005.6
20260504040017 15 0.0 0.0 0.00 0.00 0.00 54 1005.6
20260504035112 14 0.0 0.0 0.00 0.00 0.00 56 1005.6
20260504034110 13 0.0 0.0 0.00 0.00 0.00 59 1005.5
20260504033105 12 0.0 0.0 0.00 0.00 0.00 62 1005.5
20260504032103 12 0.0 0.0 0.00 0.00 0.00 65 1005.3
20260504031059 12 0.0 0.0 0.00 0.00 0.00 65 1005.5
20260504030056 11 0.0 0.0 0.00 0.00 0.00 64 1005.5
20260504025112 11 0.0 0.0 0.00 0.00 0.00 63 1005.5
20260504024128 12 0.0 0.0 0.00 0.00 0.00 61 1005.6
20260504023044 12 0.0 0.0 0.00 0.00 0.00 58 1005.6
20260504022103 13 0.0 0.0 0.00 0.00 0.00 54 1005.7
20260504021037 13 0.0 0.0 0.00 0.00 0.00 53 1005.7
20260504020036 14 0.0 0.0 0.00 0.00 0.00 52 1005.7
20260504015030 15 0.0 0.0 0.00 0.00 0.00 51 1005.6
20260504014029 15 0.0 0.0 0.00 0.00 0.00 52 1005.5
20260504013023 15 0.0 0.0 0.00 0.00 0.00 51 1005.4
20260504012019 15 0.0 0.0 0.00 0.00 0.00 51 1005.4
20260504011018 16 0.0 0.0 0.00 0.00 0.00 52 1005.4
20260504010112 16 0.0 0.0 0.00 0.00 0.00 52 1005.1
20260504005111 16 0.0 0.0 0.00 0.00 0.00 51 1005.1
20260504004107 16 0.0 0.0 0.00 0.00 0.00 51 1005.1
20260504003103 16 0.0 0.0 0.00 0.00 0.00 51 1005.1
20260504002101 17 0.0 0.0 0.00 0.00 0.00 51 1005.2
20260504001055 16 0.0 0.0 0.00 0.00 0.00 51 1005.3
20260504000052 17 0.0 0.0 0.00 0.00 0.00 51 1005.2
20260503235048 17 0.0 0.0 0.00 0.00 0.00 51 1005.4
20260503234045 17 0.0 0.0 0.00 0.00 0.00 51 1005.3
20260503233041 17 0.0 0.0 0.00 0.00 0.00 51 1005.4
20260503232037 17 0.0 0.0 0.00 0.00 0.00 50 1005.4
20260503231033 17 0.0 0.0 0.00 0.00 0.00 48 1005.4
20260503230034 17 0.0 0.0 0.00 0.00 0.00 47 1005.5
20260503225047 17 0.0 0.0 0.00 0.00 0.00 47 1005.4
20260503224047 17 0.0 0.0 0.00 0.00 0.00 47 1005.5
20260503223041 17 0.0 0.0 0.00 0.00 0.00 47 1005.4
20260503222117 18 0.0 0.0 0.00 0.00 0.00 46 1005.3
20260503221113 18 0.0 0.0 0.00 0.00 0.00 47 1005.5
20260503220110 18 0.0 0.0 0.00 0.00 0.00 46 1005.4
20260503215129 18 0.0 0.0 0.00 0.00 0.00 46 1005.6
20260503214105 18 0.0 0.0 0.00 0.00 0.00 46 1005.6
20260503213103 18 0.0 0.0 0.00 0.00 0.00 45 1005.7
20260503212108 18 0.0 0.0 0.00 0.00 0.00 45 1005.6
20260503211050 18 0.0 0.0 0.00 0.00 0.00 44 1005.7
20260503210107 18 0.0 0.0 0.00 0.00 0.00 44 1005.7
20260503205049 18 0.0 0.0 0.00 0.00 0.00 45 1005.9
20260503204037 18 0.0 0.0 0.00 0.00 0.00 45 1005.8
20260503203038 18 0.0 0.0 0.00 0.00 0.00 42 1005.8
20260503202031 18 0.0 0.0 0.00 0.00 0.00 41 1005.8
20260503201027 18 0.0 0.0 0.00 0.00 0.00 42 1005.8
20260503200025 18 0.0 0.0 0.00 0.00 0.00 42 1005.8
20260503195023 19 0.0 0.0 0.00 0.00 0.00 41 1005.9
20260503194016 19 0.0 0.0 0.00 0.00 0.00 41 1005.9
20260503193133 20 0.0 0.0 0.00 0.00 0.00 40 1005.9
20260503192130 21 0.0 0.0 0.00 0.00 0.00 37 1005.8
20260503191115 22 0.0 0.0 0.00 0.00 0.00 32 1005.8
20260503190105 22 0.0 0.0 0.00 0.00 0.00 30 1005.6
20260503185105 22 0.0 0.0 0.00 0.00 0.00 28 1005.6
20260503184111 23 0.0 0.0 0.00 0.00 0.00 28 1005.5
20260503183135 23 0.0 0.0 0.00 0.00 0.00 26 1005.5
20260503182053 23 0.0 0.0 0.00 0.00 0.00 26 1005.3
20260503181054 24 0.0 0.0 0.00 0.00 0.00 25 1005.4
20260503180046 24 0.0 0.0 0.00 0.00 0.00 24 1005.2
20260503175101 25 0.0 0.0 0.00 0.00 0.00 24 1005.1
20260503174038 26 0.0 0.0 0.00 0.00 0.00 23 1005.1
20260503173035 26 0.0 0.0 0.00 0.00 0.00 22 1005.1
20260503172029 27 0.0 1.6 0.00 0.00 0.00 21 1005.1
20260503171031 27 0.0 0.0 0.00 0.00 0.00 20 1004.9
20260503140115 30 0.0 0.0 0.00 0.00 0.00 14 1006.0
20260503131059 31 0.0 0.0 0.00 0.00 0.00 14 1006.5
20260503130114 31 0.0 0.0 0.00 0.00 0.00 14 1006.6
20260503110115 30 0.0 0.0 0.00 0.00 0.00 14 1007.5
20260503081112 24 0.0 0.0 0.00 0.00 0.00 30 1008.4
20260503080115 24 0.0 1.6 0.00 0.00 0.00 29 1008.4
20260503072055 23 0.0 0.0 0.00 0.00 0.00 30 1008.6
20260503071052 23 0.0 0.0 0.00 0.00 0.00 29 1008.7